Find Globalstar M063

NORAD ID: 26081 Int'l Des: 2000-008 Owner: GLOBT Country: US Constellation: globalstar operational
LEOCIRCULAR

Live Position

Loading 3D Globe...

About Globalstar M063

Description loading...

Upcoming Passes

Passes for default location (London). Set your location on the main map for personalized predictions.

Altitude History

Loading altitude history...

Two-Line Element Set

1 26081U 00008A 26104.26889668 -.00000063 00000-0 28756-3 0 9992
2 26081 51.9977 38.6173 0004420 166.3012 5.0306 11.86183544193305
Epoch: Apr 14, 2026 • Age: 15 hours

Current Status

Altitude 1761.9 km
Velocity 7.00 km/s
Sub-Earth Point -48.63°S, 172.94°E
Launch Date Feb 8, 2000
Age 26.1 years
Type communications

Technical Details

Classification Payload
Mass 450.00 kg
Dry Mass 380.00 kg
Total Mass 450.00 kg
Length 1.50 m
Diameter 0.60 m
Span 12.00 m
Shape Box + 2 Pan
Manufacturer LOR
Bus Type LS-400
Phase Status In Orbit
Owner/State GLOBT/US

Most Searched